Regional Weather Roundup
Issued by NWS

Home | Current Version | Previous Version | Graphics & Text | Print | Product List | Glossary On
Versions: 1 2 3 4 5 6 7 8 9 10 11 12 13 14 15 16 17 18 19 20 21 22 23 24 25 26 27 28 29 30 31 32 33 34 35 36 37 38 39 40 41 42 43 44 45 46 47 48 49 50
000
ASUS45 KSLC 261910
RWRUT

UTAH REGIONAL WEATHER ROUNDUP
NATIONAL WEATHER SERVICE SALT LAKE CITY UT
100 PM MDT THU MAR 26 2015

UTZ001>011-023>025-262000-

NORTHERN UTAH

CITY           SKY/WX    TMP DP  RH WIND       PRES   REMARKS
BRIGHAM CITY   SUNNY     54  24  30 CALM      30.41F
HILL AFB       SUNNY     53  23  31 NW6       30.40F
LOGAN          SUNNY     50  29  44 SW3       30.40F
OGDEN          SUNNY     53  24  32 VRB5      30.40F
PROVO AIRPORT  MOSUNNY   50  21  32 VRB5      30.42F
SALT LAKE CITY MOSUNNY   55  23  28 N5        30.40F
VERNAL         SUNNY     53  14  21 VRB6      30.33F
WENDOVER       SUNNY     54  23  30 SE5       30.43S
HEBER CITY     SUNNY     52  23  32 CALM      30.38F
WEST JORDAN    SUNNY     55  28  35 N5        30.40F

$$

UTZ012>022-026-027-262000-

SOUTHERN/CENTRAL UTAH

CITY           SKY/WX    TMP DP  RH WIND       PRES   REMARKS
BLANDING       SUNNY     56  15  19 W6        30.40F
BRYCE CANYON   SUNNY     51  22  31 VRB3      30.41F
CEDAR CITY     SUNNY     56  18  22 NE7       30.37F
DELTA          SUNNY     55  19  24 NW6       30.41F
HANKSVILLE     SUNNY     59  19  21 SW3       30.36F
MILFORD        SUNNY     57  24  28 NE13G22   30.40F
MOAB/CYNLANDS  SUNNY     59  13  16 NW8       30.32F
PRICE          SUNNY     56  20  24 S6        30.33F
ST GEORGE      CLEAR     66  19  16 CALM      30.32F
KANAB          SUNNY     63  18  17 E9        30.36F

$$

REGIONAL REPORTS     COLORADO/ARIZONA

CITY           SKY/WX    TMP DP  RH WIND       PRES   REMARKS
CRAIG, CO      MOSUNNY   49  24  37 W8        30.34F
GRAND JUNCTION SUNNY     53  16  23 VRB3      30.33F
RIFLE          MOSUNNY   52  18  26 SE5       30.33F
MONTROSE       SUNNY     53  14  21 CALM      30.35F
CORTEZ         SUNNY     60  16  18 VRB7      30.29F
PAGE, AZ       MOSUNNY   61  11  14 N9        30.34F
GRAND CANYON   SUNNY     57  12  17 VRB7G16   30.38F
KINGMAN        SUNNY     70  16  12 NE12      30.26F
FLAGSTAFF      SUNNY     54   6  14 E12G21    30.37F

$$

REGIONAL REPORTS    NEVADA/IDAHO/WYOMING

CITY           SKY/WX    TMP DP  RH WIND       PRES   REMARKS
LAS VEGAS, NV  MOSUNNY   75  20  12 NE13      30.22F
ELY            SUNNY     55  26  32 N9        30.40F
ELKO           SUNNY     57  30  35 CALM      30.40F
POCATELLO, ID  MOSUNNY   54  33  45 W18       30.41F
BURLEY         SUNNY     56  33  42 SW9       30.39F
EVANSTON, WY   MOSUNNY   51  27  39 W10G17    30.38F
ROCK SPRINGS   SUNNY     51  24  34 W23G33    30.30F
KEMMERER       MOSUNNY   43  28  56 W18G29    30.38S

$$


USA.gov is the U.S. government's official web portal to all federal, state and local government web resources and services.